Society Hill, SC

10:40 PM EDT on August 31, 2016 (GMT -0400)
Darlington County Jetport

Weather History for KUDG - March, 2013

Change the Weather History Date:

Monday, March 25, 2013

  Actual Average (KFLO) Record (KFLO)
Temperature  
Mean Temperature 46 °F 58 °F  
Max Temperature 51 °F 70 °F 89 °F (2007)
Min Temperature 41 °F 46 °F 27 °F (1956)
Degree Days  
Heating Degree Days 19 8  
Month to date heating degree days 266  
Since 1 July heating degree days 2332  
Cooling Degree Days 0 1  
Month to date cooling degree days 12  
Year to date cooling degree days 18  
Moisture  
Dew Point 29 °F    
Average Humidity 54    
Maximum Humidity 93    
Minimum Humidity 33    
Precipitation  
Precipitation 0.00 in 0.10 in 1.80 in (1971)
Month to date precipitation 2.69  
Year to date precipitation 8.84  
Sea Level Pressure  
Sea Level Pressure 29.70 in    
Wind  
Wind Speed 11 mph (WSW)    
Max Wind Speed 25 mph    
Max Gust Speed 34 mph    
Visibility 10 miles    
Events      
T = Trace of Precipitation, MM = Missing Value Source: NWS Daily Summary

Daily Weather History Graph

Daily Weather History Graph

Search for Another Location

Airport or City:

Trip Planner

Search our weather history database for the weather conditions in past years. The results will help you decide how hot, cold, wet, or windy it might be!

Date:

Astronomy

Mar. 25, 2013 Rise Set
Actual Time 7:15 AM EDT 7:35 PM EDT
Civil Twilight 6:50 AM EDT 8:00 PM EDT
Nautical Twilight 6:21 AM EDT 8:30 PM EDT
Astronomical Twilight 5:51 AM EDT 8:59 PM EDT
Moon 6:07 PM EDT (3/25) 5:54 AM EDT (3/25)
Length of Visible Light 13h 09m
Length of Day
12h 19m
Waxing Gibbous, 96% of the Moon is Illuminated
Mar 25
Waxing Gibbous
Mar 27
Full
Apr 3
Last Quarter
Apr 10
New
Apr 18
First Quarter

Hourly Weather History & Observations

Time (EDT) Temp. Windchill Dew Point Humidity Pressure Visibility Wind Dir Wind Speed Gust Speed Precip Events Conditions
12:15 AM 44.6 °F 41.4 °F 37.4 °F 76% 29.61 in 10.0 mi North 5.8 mph - N/A   Overcast
12:35 AM 42.8 °F 39.3 °F 37.4 °F 81% 29.60 in 10.0 mi NNE 5.8 mph - N/A   Overcast
12:55 AM 42.8 °F 41.1 °F 37.4 °F 81% 29.60 in 10.0 mi ENE 3.5 mph - N/A   Overcast
1:15 AM 42.8 °F 40.1 °F 37.4 °F 81% 29.59 in 10.0 mi NE 4.6 mph - N/A   Overcast
1:35 AM 42.8 °F - 37.4 °F 81% 29.60 in 10.0 mi Calm Calm - N/A   Overcast
1:55 AM 44.6 °F - 37.4 °F 76% 29.61 in 10.0 mi Calm Calm - N/A   Overcast
2:15 AM 42.8 °F - 37.4 °F 81% 29.61 in 10.0 mi Calm Calm - N/A   Overcast
2:35 AM 42.8 °F 40.1 °F 37.4 °F 81% 29.62 in 10.0 mi SW 4.6 mph - N/A   Overcast
2:55 AM 42.8 °F 41.1 °F 37.4 °F 81% 29.62 in 10.0 mi SSW 3.5 mph - N/A   Overcast
3:15 AM 42.8 °F 40.1 °F 37.4 °F 81% 29.61 in 10.0 mi South 4.6 mph - N/A   Overcast
3:35 AM 44.6 °F 41.4 °F 37.4 °F 76% 29.60 in 5.0 mi SSW 5.8 mph - N/A   Overcast
3:55 AM 42.8 °F 40.1 °F 37.4 °F 81% 29.60 in 5.0 mi SSW 4.6 mph - N/A   Overcast
4:15 AM 42.8 °F 40.1 °F 37.4 °F 81% 29.59 in 7.0 mi SSW 4.6 mph - N/A   Overcast
4:35 AM 44.6 °F 40.7 °F 39.2 °F 81% 29.59 in 7.0 mi SSW 6.9 mph - N/A   Overcast
4:55 AM 44.6 °F 42.2 °F 39.2 °F 81% 29.59 in 7.0 mi SSW 4.6 mph - N/A   Overcast
5:15 AM 41.0 °F 35.8 °F 39.2 °F 93% 29.59 in 9.0 mi SSW 8.1 mph - N/A   Overcast
5:35 AM 44.6 °F 38.8 °F 39.2 °F 81% 29.59 in 10.0 mi WSW 11.5 mph - N/A   Overcast
5:55 AM 44.6 °F 38.8 °F 37.4 °F 76% 29.60 in 10.0 mi WSW 11.5 mph - N/A   Scattered Clouds
6:15 AM 42.8 °F 36.2 °F 35.6 °F 76% 29.60 in 10.0 mi WSW 12.7 mph - N/A   Clear
6:35 AM 42.8 °F 36.2 °F 33.8 °F 70% 29.61 in 10.0 mi WSW 12.7 mph - N/A   Clear
6:55 AM 42.8 °F 36.2 °F 33.8 °F 70% 29.62 in 10.0 mi WSW 12.7 mph - N/A   Clear
7:15 AM 42.8 °F 36.2 °F 33.8 °F 70% 29.63 in 10.0 mi WSW 12.7 mph 17.3 mph N/A   Clear
7:35 AM 41.0 °F 34.3 °F 32.0 °F 70% 29.63 in 10.0 mi WSW 11.5 mph - N/A   Clear
7:55 AM 41.0 °F 33.9 °F 32.0 °F 70% 29.64 in 10.0 mi West 12.7 mph 16.1 mph N/A   Clear
8:15 AM 42.8 °F 36.6 °F 32.0 °F 66% 29.64 in 10.0 mi West 11.5 mph - N/A   Clear
8:35 AM 42.8 °F 36.2 °F 32.0 °F 66% 29.65 in 10.0 mi West 12.7 mph 23.0 mph N/A   Clear
8:55 AM 44.6 °F 37.4 °F 32.0 °F 61% 29.66 in 10.0 mi WSW 16.1 mph 23.0 mph N/A   Clear
9:15 AM 44.6 °F 37.4 °F 30.2 °F 57% 29.66 in 10.0 mi West 16.1 mph 31.1 mph N/A   Clear
9:35 AM 44.6 °F 37.4 °F 30.2 °F 57% 29.66 in 10.0 mi West 16.1 mph 27.6 mph N/A   Clear
9:55 AM 46.4 °F 39.5 °F 30.2 °F 53% 29.67 in 10.0 mi West 17.3 mph 28.8 mph N/A   Clear
10:15 AM 46.4 °F 39.0 °F 30.2 °F 53% 29.67 in 10.0 mi West 19.6 mph 29.9 mph N/A   Clear
10:35 AM 48.2 °F - 28.4 °F 46% 29.68 in 10.0 mi West 19.6 mph 31.1 mph N/A   Clear
10:55 AM 48.2 °F - 30.2 °F 50% 29.68 in 10.0 mi WSW 19.6 mph 27.6 mph N/A   Partly Cloudy
11:15 AM 50.0 °F - 28.4 °F 43% 29.68 in 10.0 mi West 19.6 mph 26.5 mph N/A   Scattered Clouds
11:35 AM 48.2 °F - 26.6 °F 43% 29.69 in 10.0 mi West 18.4 mph 28.8 mph N/A   Scattered Clouds
11:55 AM 48.2 °F - 28.4 °F 46% 29.69 in 10.0 mi West 17.3 mph 25.3 mph N/A   Mostly Cloudy
12:15 PM 50.0 °F - 26.6 °F 40% 29.69 in 10.0 mi West 19.6 mph 31.1 mph N/A   Mostly Cloudy
12:35 PM 51.8 °F - 26.6 °F 38% 29.70 in 10.0 mi West 20.7 mph 26.5 mph N/A   Mostly Cloudy
12:55 PM 51.8 °F - 26.6 °F 38% 29.70 in 10.0 mi WSW 24.2 mph 29.9 mph N/A   Mostly Cloudy
1:15 PM 51.8 °F - 26.6 °F 38% 29.69 in 10.0 mi WSW 18.4 mph 31.1 mph N/A   Overcast
1:35 PM 51.8 °F - 26.6 °F 38% 29.70 in 10.0 mi WSW 25.3 mph 32.2 mph N/A   Overcast
1:55 PM 50.0 °F - 24.8 °F 37% 29.69 in 10.0 mi West 21.9 mph 28.8 mph N/A   Overcast
2:15 PM 50.0 °F - 23.0 °F 35% 29.69 in 10.0 mi West 19.6 mph 33.4 mph N/A   Overcast
2:35 PM 50.0 °F - 23.0 °F 35% 29.69 in 10.0 mi West 18.4 mph 27.6 mph N/A   Overcast
2:55 PM 50.0 °F - 24.8 °F 37% 29.70 in 10.0 mi West 17.3 mph 31.1 mph N/A   Overcast
3:15 PM 50.0 °F - 24.8 °F 37% 29.70 in 10.0 mi West 19.6 mph 34.5 mph N/A   Overcast
3:35 PM 50.0 °F - 24.8 °F 37% 29.70 in 10.0 mi West 23.0 mph 29.9 mph N/A   Overcast
3:55 PM 48.2 °F - 23.0 °F 37% 29.70 in 10.0 mi West 18.4 mph 32.2 mph N/A   Mostly Cloudy
4:15 PM 50.0 °F - 23.0 °F 35% 29.70 in 10.0 mi West 20.7 mph 31.1 mph N/A   Mostly Cloudy
4:35 PM 48.2 °F - 23.0 °F 37% 29.71 in 10.0 mi West 15.0 mph 23.0 mph N/A   Mostly Cloudy
4:55 PM 48.2 °F - 21.2 °F 34% 29.72 in 10.0 mi West 18.4 mph 27.6 mph N/A   Mostly Cloudy
5:15 PM 51.8 °F - 23.0 °F 33% 29.72 in 10.0 mi WSW 23.0 mph 31.1 mph N/A   Scattered Clouds
5:35 PM 51.8 °F - 24.8 °F 35% 29.73 in 10.0 mi WSW 18.4 mph 26.5 mph N/A   Scattered Clouds
5:55 PM 50.0 °F - 23.0 °F 35% 29.74 in 10.0 mi West 12.7 mph 27.6 mph N/A   Scattered Clouds
6:15 PM 48.2 °F - 24.8 °F 40% 29.75 in 10.0 mi West 18.4 mph 24.2 mph N/A   Scattered Clouds
6:35 PM 48.2 °F - 23.0 °F 37% 29.76 in 10.0 mi West 16.1 mph 24.2 mph N/A   Overcast
6:55 PM 48.2 °F - 21.2 °F 34% 29.78 in 10.0 mi West 21.9 mph 28.8 mph N/A   Overcast
7:15 PM 48.2 °F - 21.2 °F 34% 29.79 in 10.0 mi West 16.1 mph 25.3 mph N/A   Overcast
7:35 PM 46.4 °F 40.7 °F 21.2 °F 37% 29.80 in 10.0 mi West 12.7 mph 20.7 mph N/A   Scattered Clouds
7:55 PM 46.4 °F 39.5 °F 21.2 °F 37% 29.81 in 10.0 mi West 17.3 mph 21.9 mph N/A   Partly Cloudy
8:15 PM 46.4 °F 39.2 °F 21.2 °F 37% 29.82 in 10.0 mi WSW 18.4 mph 24.2 mph N/A   Scattered Clouds
8:35 PM 46.4 °F 40.4 °F 21.2 °F 37% 29.83 in 10.0 mi West 13.8 mph 24.2 mph N/A   Mostly Cloudy
8:55 PM 44.6 °F 38.1 °F 23.0 °F 43% 29.84 in 10.0 mi WSW 13.8 mph 17.3 mph N/A   Mostly Cloudy
9:15 PM 44.6 °F 38.8 °F 21.2 °F 39% 29.85 in 10.0 mi West 11.5 mph 18.4 mph N/A   Overcast
9:35 PM 44.6 °F 37.8 °F 21.2 °F 39% 29.86 in 10.0 mi WSW 15.0 mph 19.6 mph N/A   Scattered Clouds
9:55 PM 42.8 °F 36.2 °F 21.2 °F 42% 29.87 in 10.0 mi WSW 12.7 mph 18.4 mph N/A   Clear
10:15 PM 42.8 °F 35.4 °F 21.2 °F 42% 29.88 in 10.0 mi WSW 15.0 mph 20.7 mph N/A   Clear
10:35 PM 42.8 °F 37.0 °F 21.2 °F 42% 29.89 in 10.0 mi WSW 10.4 mph 19.6 mph N/A   Partly Cloudy
10:55 PM 42.8 °F 35.8 °F 21.2 °F 42% 29.90 in 10.0 mi West 13.8 mph 23.0 mph N/A   Partly Cloudy
11:15 PM 42.8 °F 36.2 °F 21.2 °F 42% 29.91 in 10.0 mi West 12.7 mph 24.2 mph N/A   Clear
11:35 PM 41.0 °F 32.8 °F 21.2 °F 45% 29.91 in 10.0 mi West 16.1 mph 23.0 mph N/A   Clear
11:55 PM 41.0 °F 34.3 °F 21.2 °F 45% 29.92 in 10.0 mi West 11.5 mph 19.6 mph N/A   Clear